Location: Pasadena, ca
(34.1243°N, 118.1037°W)
Time: 07:48:36
(UTC-08:00)

Hubble Space Telescope - Pass Details

Date: 15 November 2017
Orbit: 537 x 541 km, 28.5° (Epoch: 17 November)

Event Time Altitude Azimuth Distance (km) Brightness Sun altitude
Exits shadow 05:07:09 - 214° (SW) 2,310 3.8 -16.3°
Reaches altitude 10° 05:09:02 10° 198° (SSW) 1,777 3.4 -16.0°
Maximum altitude 05:11:34 16° 159° (SSE) 1,440 3.4 -15.4°
Drops below altitude 10° 05:14:07 10° 121° (ESE) 1,781 4.6 -14.9°
Sets 05:17:05 0° 99° (E) 2,674 6.3 -14.3°
